Location: Mannheim
(49.4880°N, 8.4650°E)
Time: 22:40:41
(UTC+01:00)

ISS - Visible Passes

Search period start: 23 January 2021 00:00
Search period end: 02 February 2021 00:00
Orbit: 418 x 421 km, 51.6° (Epoch: 24 January)

Date Brightness Start Highest point End Pass type
(mag) Time Alt. Az. Time Alt. Az. Time Alt. Az.
23 Jan -2.7 17:55:53 10° SW 17:59:01 35° SSE 18:01:49 12° E visible
23 Jan -2.7 19:32:19 10° W 19:34:48 45° W 19:34:48 45° W visible
24 Jan -3.8 18:44:56 10° WSW 18:48:19 88° NNW 18:49:25 40° ENE visible
24 Jan -0.4 20:21:57 10° WNW 20:22:23 13° WNW 20:22:23 13° WNW visible
25 Jan -3.6 17:57:35 10° WSW 18:00:57 71° SSE 18:04:00 12° ENE visible
25 Jan -2.5 19:34:32 10° W 19:36:58 41° WNW 19:36:58 41° WNW visible
26 Jan -3.6 18:47:04 10° W 18:50:26 62° N 18:51:32 38° ENE visible
26 Jan -0.4 20:24:05 10° WNW 20:24:30 13° WNW 20:24:30 13° WNW visible
27 Jan -3.7 17:59:38 10° W 18:03:00 72° NNW 18:06:05 12° ENE visible
27 Jan -2.5 19:36:40 10° WNW 19:39:03 40° NW 19:39:03 40° NW visible
28 Jan -3.5 18:49:13 10° WNW 18:52:35 57° N 18:53:37 37° ENE visible
28 Jan -0.4 20:26:08 10° WNW 20:26:35 13° WNW 20:26:35 13° WNW visible
29 Jan -3.5 18:01:45 10° W 18:05:05 58° N 18:08:11 12° ENE visible
29 Jan -2.7 19:38:42 10° WNW 19:41:09 45° WNW 19:41:09 45° WNW visible
30 Jan -3.8 18:51:16 10° WNW 18:54:39 69° NNE 18:55:46 38° E visible
30 Jan -0.5 20:28:11 10° W 20:28:44 14° W 20:28:44 14° W visible
31 Jan -3.6 18:03:48 10° WNW 18:07:10 61° N 18:10:25 11° E visible
31 Jan -2.8 19:40:40 10° WNW 19:43:24 46° WSW 19:43:24 46° WSW visible
01 Feb -3.7 18:53:12 10° WNW 18:56:36 76° SSW 18:58:08 30° ESE visible
01 Feb -0.4 20:30:35 10° W 20:31:07 12° W 20:31:07 12° W visible
